This is the latest recevied weather packets stored in our database for station/object KC8JWT. If no packets are shown the sender has not sent any weather packets the latest 10 day(s).
| Time | Temp. | Humidity | Pressure | Rain* | Wind** | Luminosity | Snow |
|---|---|---|---|---|---|---|---|
| 1777487759 | 17.78° C | 99% | 1007.2 hPa | 0 mm | - | 262 W/m² | - |
| 1777487457 | 17.22° C | 99% | 1007.2 hPa | 0 mm | - | 275 W/m² | - |
| 1777487154 | 17.22° C | 99% | 1007.4 hPa | 0 mm | - | 224 W/m² | - |
| 1777486849 | 17.22° C | 99% | 1007.4 hPa | 1.27 mm | - | 139 W/m² | - |
| 1777486547 | 17.22° C | 99% | 1007.4 hPa | 10.16 mm | - | 242 W/m² | - |
| 1777486244 | 17.22° C | 98% | 1007.5 hPa | 13.72 mm | - | 225 W/m² | - |
| 1777485942 | 17.78° C | 95% | 1007.5 hPa | 7.87 mm | - | 167 W/m² | - |
| 1777485638 | 17.78° C | 92% | 1007.4 hPa | 0 mm | - | 62 W/m² | - |
| 1777485333 | 18.33° C | 90% | 1007.5 hPa | 0 mm | - | 72 W/m² | - |
| 1777485030 | 19.44° C | 88% | 1007.2 hPa | 0 mm | - | 39 W/m² | - |
| 1777484727 | 20° C | 87% | 1007.3 hPa | 0 mm | - | 81 W/m² | - |
| 1777484423 | 20° C | 85% | 1007.1 hPa | 0 mm | - | 79 W/m² | - |
| 1777484120 | 20.56° C | 85% | 1007.2 hPa | 0 mm | - | 104 W/m² | - |
| 1777483817 | 21.11° C | 84% | 1007.1 hPa | 0 mm | - | 141 W/m² | - |
| 1777483514 | 21.11° C | 83% | 1007.3 hPa | 0 mm | - | 248 W/m² | - |
| 1777483214 | 20.56° C | 84% | 1007.3 hPa | 0 mm | - | 290 W/m² | - |
| 1777482910 | 21.11° C | 84% | 1007.3 hPa | 0 mm | - | 285 W/m² | - |
| 1777482606 | 21.11° C | 86% | 1007.4 hPa | 0 mm | - | 261 W/m² | - |
| 1777482304 | 20.56° C | 86% | 1007.7 hPa | 0 mm | - | 326 W/m² | - |
| 1777482000 | 20.56° C | 86% | 1007.8 hPa | 0 mm | - | 194 W/m² | - |
| 1777481698 | 20.56° C | 88% | 1007.6 hPa | 0 mm | - | 239 W/m² | - |
| 1777481395 | 20° C | 90% | 1007.7 hPa | 0 mm | - | 292 W/m² | - |
| 1777481091 | 20° C | 92% | 1007.9 hPa | 0 mm | - | 400 W/m² | - |
| 1777480788 | 20° C | 91% | 1008 hPa | 0 mm | - | 352 W/m² | - |
| 1777480485 | 19.44° C | 91% | 1008.3 hPa | 0 mm | - | 324 W/m² | - |
* Rain latest hour (hover to see other rain measurements)
** Current wind speed in m/s (hover to see current wind gust speed)